Weather History for St. Cloud, MN

Change the Weather History Date:

Tuesday, September 11, 2012

  Actual Average Record
Temperature  
Mean Temperature 79 °F 61 °F  
Max Temperature 96 °F 72 °F 96 °F (1931)
Min Temperature 61 °F 49 °F 31 °F (1955)
Degree Days  
Heating Degree Days 0 6  
Month to date heating degree days 17 49  
Since 1 July heating degree days 48 107  
Cooling Degree Days 14 1  
Month to date cooling degree days 44 21  
Year to date cooling degree days 735 450  
Growing Degree Days 28 (Base 50)    
Moisture  
Dew Point 51 °F    
Average Humidity 44    
Maximum Humidity 67    
Minimum Humidity 20    
Precipitation  
Precipitation 0.00 in 0.11 in 3.35 in (1980)
Month to date precipitation 0.09 1.41  
Year to date precipitation 21.58 20.99  
Snow  
Snow 0.00 in 0.00 in 0.00 in ()
Month to date snowfall 0.0 0.0  
Since 1 July snowfall 0.0 0.0  
Since 1 September snowfall 0.0 0.0  
Snow Depth 0.00 in    
Sea Level Pressure  
Sea Level Pressure 29.75 in    
Wind  
Wind Speed 11 mph (South)    
Max Wind Speed 25 mph    
Max Gust Speed 35 mph    
Visibility 10 miles    
Events      
T = Trace of Precipitation, MM = Missing Value Source: NWS Daily Summary

Daily Weather History Graph

Daily Weather History Graph

Search for Another Location

Airport:

Trip Planner

Search our weather history database for the weather conditions in past years. The results will help you decide how hot, cold, wet, or windy it might be!

Date:

Astronomy

Sep. 11, 2012 Rise Set
Actual Time 6:50 AM CDT 7:34 PM CDT
Civil Twilight 6:20 AM CDT 8:03 PM CDT
Nautical Twilight 5:44 AM CDT 8:39 PM CDT
Astronomical Twilight 5:07 AM CDT 9:16 PM CDT
Moon 1:57 AM CDT (9/11) 4:54 PM CDT (9/11)
Length of Visible Light 13h 43m
Length of Day
12h 43m
Waning Crescent, 21% of the Moon is Illuminated
Sep 11
Waning Crescent
Sep 15
New
Sep 22
First Quarter
Sep 29
Full
Oct 8
Last Quarter

Hourly Weather History & Observations

Time (CDT) Temp. Dew Point Humidity Pressure Visibility Wind Dir Wind Speed Gust Speed Precip Events Conditions
12:53 AM 70.0 °F 48.0 °F 46% 29.78 in 10.0 mi South 15.0 mph 24.2 mph N/A   Clear
1:53 AM 68.0 °F 48.9 °F 50% 29.78 in 10.0 mi South 12.7 mph - N/A   Clear
2:53 AM 66.0 °F 50.0 °F 56% 29.77 in 10.0 mi South 9.2 mph - N/A   Clear
3:53 AM 64.9 °F 50.0 °F 58% 29.76 in 10.0 mi South 10.4 mph - N/A   Clear
4:53 AM 64.0 °F 51.1 °F 63% 29.76 in 10.0 mi SSE 9.2 mph - N/A   Clear
5:53 AM 62.1 °F 51.1 °F 67% 29.76 in 10.0 mi SSE 10.4 mph - N/A   Clear
6:53 AM 62.1 °F 51.1 °F 67% 29.76 in 10.0 mi SSE 9.2 mph - N/A   Clear
7:53 AM 64.0 °F 52.0 °F 65% 29.77 in 10.0 mi SSE 9.2 mph - N/A   Clear
8:53 AM 66.0 °F 52.0 °F 60% 29.76 in 10.0 mi SSE 11.5 mph - N/A   Clear
9:53 AM 66.9 °F 52.0 °F 59% 29.73 in 10.0 mi SE 17.3 mph 21.9 mph N/A   Partly Cloudy
10:53 AM 71.1 °F 52.0 °F 51% 29.75 in 10.0 mi South 11.5 mph 21.9 mph N/A   Clear
11:53 AM 75.0 °F 52.0 °F 44% 29.74 in 10.0 mi Variable 4.6 mph - N/A   Clear
12:53 PM 81.0 °F 51.1 °F 35% 29.75 in 10.0 mi SSW 9.2 mph - N/A   Clear
1:53 PM 86.0 °F 51.1 °F 30% 29.72 in 10.0 mi South 16.1 mph 23.0 mph N/A   Clear
2:53 PM 88.0 °F 51.1 °F 28% 29.69 in 10.0 mi South 16.1 mph 20.7 mph N/A   Clear
3:53 PM 93.9 °F 50.0 °F 22% 29.65 in 10.0 mi South 18.4 mph 28.8 mph N/A   Clear
4:53 PM 95.0 °F 48.0 °F 20% 29.66 in 10.0 mi SSW 24.2 mph 33.4 mph N/A   Clear
5:53 PM 93.9 °F 48.9 °F 21% 29.67 in 10.0 mi SW 17.3 mph 23.0 mph N/A   Clear
6:53 PM 90.0 °F 50.0 °F 25% 29.68 in 10.0 mi SW 5.8 mph - N/A   Clear
7:53 PM 81.0 °F 51.1 °F 35% 29.72 in 10.0 mi Calm Calm - N/A   Clear
8:53 PM 75.9 °F 53.1 °F 45% 29.77 in 10.0 mi NW 6.9 mph - N/A   Clear
9:53 PM 72.0 °F 53.1 °F 51% 29.82 in 10.0 mi NW 6.9 mph - N/A   Clear
10:53 PM 70.0 °F 50.0 °F 49% 29.84 in 10.0 mi NW 6.9 mph - N/A   Clear
11:53 PM 66.0 °F 48.0 °F 52% 29.88 in 10.0 mi NW 6.9 mph - N/A   Clear